Imperial, NE

3:34 PM MDT on June 25, 2017 (GMT -0600)
Imperial Municipal

Weather History for KIML - November, 2012

Change the Weather History Date:

Friday, November 16, 2012

  Actual Average Record
Temperature  
Mean Temperature 42 °F 37 °F  
Max Temperature 59 °F 51 °F 80 °F (1941)
Min Temperature 24 °F 24 °F -9 °F (1955)
Degree Days  
Heating Degree Days 23 28  
Month to date heating degree days 373 388  
Cooling Degree Days 0 0  
Month to date cooling degree days 0 0  
Year to date cooling degree days 1382 963  
Moisture  
Dew Point 27 °F    
Average Humidity 58    
Maximum Humidity 88    
Minimum Humidity 28    
Precipitation  
Precipitation 0.00 in 0.02 in 0.55 in (1926)
Snow  
Snow 0.00 in - - ()
Snow Depth 0.00 in    
Sea Level Pressure  
Sea Level Pressure 30.27 in    
Wind  
Wind Speed 11 mph (South)    
Max Wind Speed 24 mph    
Max Gust Speed 30 mph    
Visibility 10 miles    
Events      
T = Trace of Precipitation, MM = Missing Value Source: NWS Daily Summary

Daily Weather History Graph

Daily Weather History Graph

Search for Another Location

Airport or City:

Trip Planner

Search our weather history database for the weather conditions in past years. The results will help you decide how hot, cold, wet, or windy it might be!

Date:

Astronomy

Nov. 16, 2012 Rise Set
Actual Time 6:34 AM MST 4:27 PM MST
Civil Twilight 6:05 AM MST 4:57 PM MST
Nautical Twilight 5:32 AM MST 5:30 PM MST
Astronomical Twilight 4:59 AM MST 6:02 PM MST
Moon 9:31 AM MST (11/16) 7:29 PM MST (11/16)
Length of Visible Light 10h 51m
Length of Day
9h 53m
Waxing Crescent, 12% of the Moon is Illuminated
Nov 16
Waxing Crescent
Nov 20
First Quarter
Nov 28
Full
Dec 6
Last Quarter
Dec 13
New

Hourly Weather History & Observations

Time (MST) Temp. Windchill Dew Point Humidity Pressure Visibility Wind Dir Wind Speed Gust Speed Precip Events Conditions
12:53 AM 26.1 °F 20.5 °F 19.9 °F 78% 30.42 in 10.0 mi SSE 4.6 mph - N/A   Clear
1:53 AM 28.0 °F 24.2 °F 21.0 °F 75% 30.41 in 10.0 mi South 3.5 mph - N/A   Clear
2:53 AM 25.0 °F 17.1 °F 21.0 °F 85% 30.41 in 10.0 mi South 6.9 mph - N/A   Clear
3:53 AM 30.9 °F 23.5 °F 24.1 °F 76% 30.38 in 10.0 mi South 8.1 mph - N/A   Clear
4:53 AM 28.9 °F 21.9 °F 23.0 °F 78% 30.40 in 10.0 mi South 6.9 mph - N/A   Clear
5:53 AM 30.9 °F 24.3 °F 24.1 °F 76% 30.38 in 10.0 mi South 6.9 mph - N/A   Clear
6:53 AM 27.0 °F 19.5 °F 21.9 °F 81% 30.40 in 10.0 mi South 6.9 mph - N/A   Clear
7:53 AM 32.0 °F 25.6 °F 25.0 °F 75% 30.40 in 10.0 mi South 6.9 mph - N/A   Clear
8:53 AM 41.0 °F 35.8 °F 28.0 °F 60% 30.37 in 10.0 mi South 8.1 mph - N/A   Clear
9:53 AM 46.9 °F - 28.9 °F 50% 30.34 in 10.0 mi South 16.1 mph 23.0 mph N/A   Clear
10:53 AM 52.0 °F - 26.1 °F 37% 30.31 in 10.0 mi South 11.5 mph - N/A   Clear
11:53 AM 55.0 °F - 27.0 °F 34% 30.26 in 10.0 mi South 16.1 mph - N/A   Clear
12:53 PM 57.9 °F - 25.0 °F 28% 30.22 in 10.0 mi South 16.1 mph - N/A   Clear
1:53 PM 59.0 °F - 26.1 °F 28% 30.18 in 10.0 mi SSW 17.3 mph 24.2 mph N/A   Clear
2:53 PM 57.9 °F - 27.0 °F 31% 30.18 in 10.0 mi South 20.7 mph 26.5 mph N/A   Clear
3:53 PM 55.9 °F - 27.0 °F 33% 30.16 in 10.0 mi South 16.1 mph - N/A   Clear
4:53 PM 48.9 °F - 26.1 °F 41% 30.17 in 10.0 mi SSE 10.4 mph - N/A   Clear
5:53 PM 46.9 °F - 28.9 °F 50% 30.17 in 10.0 mi SSE 12.7 mph - N/A   Clear
6:53 PM 46.9 °F - 30.9 °F 54% 30.18 in 10.0 mi SSE 15.0 mph - N/A   Clear
7:53 PM 46.9 °F - 32.0 °F 56% 30.16 in 10.0 mi South 16.1 mph 24.2 mph N/A   Clear
8:53 PM 44.1 °F 38.6 °F 32.0 °F 63% 30.14 in 10.0 mi South 10.4 mph - N/A   Clear
9:53 PM 43.0 °F 37.2 °F 32.0 °F 65% 30.12 in 10.0 mi SSE 10.4 mph - N/A   Clear
10:53 PM 37.9 °F 31.5 °F 30.9 °F 76% 30.11 in 10.0 mi SSE 9.2 mph - N/A   Clear
11:53 PM 36.0 °F 31.1 °F 30.0 °F 79% 30.11 in 10.0 mi South 5.8 mph - N/A   Clear